Location: Kitt Peak
(31.9639°N, 111.5992°W)
Time: 13:30:40
(UTC-07:00)

Hubble Space Telescope - Visible Passes

Search period start: 23 November 2017 00:00
Search period end: 03 December 2017 00:00
Orbit: 537 x 541 km, 28.5° (Epoch: 22 November)

Date Brightness Start Highest point End Pass type
(mag) Time Alt. Az. Time Alt. Az. Time Alt. Az.
23 Nov 2.1 04:52:07 37° SE 04:52:07 37° SE 04:54:54 10° ESE visible
23 Nov 2.0 06:28:09 10° W 06:31:52 32° SSW 06:35:34 10° SE visible
24 Nov 2.7 04:42:32 28° ESE 04:42:32 28° ESE 04:44:40 10° ESE visible
24 Nov 2.2 06:18:03 10° WSW 06:21:35 28° SSW 06:25:08 10° SE visible
25 Nov 3.2 04:32:57 20° ESE 04:32:57 20° ESE 04:34:24 10° ESE visible
25 Nov 2.4 06:08:19 12° WSW 06:11:18 23° SSW 06:14:37 10° SE visible
26 Nov 3.7 04:23:23 14° ESE 04:23:23 14° ESE 04:24:06 10° ESE visible
26 Nov 2.6 05:58:45 13° WSW 06:01:01 19° SSW 06:04:00 10° SSE visible
27 Nov 2.8 05:49:12 13° SW 05:50:43 16° SSW 05:53:14 10° SSE visible
28 Nov 3.0 05:39:40 12° SW 05:40:24 12° SSW 05:42:10 10° S visible
